Weather observations for the past three days for
Mountain View, Moffett Field
Metric (Imperial)
Date Time (pdt) Wind (kph) Vis. (km) Weather Sky Cond. Temperature (ºC) Relative Humidity Wind Chill (°C) Heat Index (°C) Pressure Precipitation (cm)
Air Dwpt 6 hour altimeter (cm) sea level (mb) 1 hr 3 hr 6 hr
Max. Min.
09 09:15 Vrbl 7 9.66 A Few Clouds with Haze FEW015 15 11 77% 76.23 0.0
09 08:55 Calm 9.66 A Few Clouds with Haze FEW013 16 11 72% 76.23 0.0
09 08:35 Calm 9.66 Mostly Cloudy with Haze BKN013 15 11 77% 76.23 0.0
09 08:15 Calm 9.66 Mostly Cloudy with Haze BKN012 14 10 77% 76.23 0.0
09 07:55 Calm 8.05 Overcast with Haze OVC012 13 10 82% 76.23 0.0
09 07:35 S 6 9.66 Overcast with Haze OVC011 13 10 82% 76.23 0.0
09 07:15 S 7 8.05 Overcast with Haze OVC011 13 10 82% 76.23 0.0
09 06:55 SE 6 8.05 Overcast with Haze OVC011 13 10 82% 76.2 0.0
09 06:35 SE 7 8.05 Fog/Mist OVC011 13 10 82% 76.2 0.0
09 06:15 SE 7 9.66 Overcast with Haze OVC011 13 10 82% 76.2 0.0
09 05:55 Calm 11.27 Overcast OVC011 13 10 82% 76.2 0.0
09 05:35 Calm 9.66 Overcast with Haze OVC011 13 10 82% 76.2 0.0
09 05:15 Calm 11.27 Overcast OVC011 13 11 88% 76.2 0.0
09 04:55 Calm 11.27 Overcast OVC011 13 11 88% 76.2 0.0
09 04:35 Calm 9.66 Fog/Mist OVC011 13 11 88% 76.2 0.0
09 04:15 E 7 11.27 Overcast OVC011 13 11 88% 76.2 0.0
09 03:55 Calm 9.66 Fog/Mist OVC011 13 11 88% 76.2 0.0
09 03:35 Calm 11.27 Overcast OVC011 13 11 88% 76.2 0.0
09 03:15 Calm 11.27 Overcast OVC011 12 11 94% 76.23 0.0
09 02:55 Calm 11.27 Overcast OVC012 12 10 88% 76.23 0.0
09 02:35 SE 7 11.27 Overcast OVC013 12 10 88% 76.23 0.0
09 02:15 SE 7 11.27 Mostly Cloudy BKN013 12 10 88% 76.25 0.0
09 01:55 SE 7 11.27 Mostly Cloudy BKN013 12 11 94% 76.25 0.0
09 01:35 SE 6 12.87 A Few Clouds FEW013 13 10 82% 76.25 0.0
09 01:15 NE 6 12.87 Fair CLR 12 10 88% 76.28 0.0
09 00:55 NE 7 12.87 Fair CLR 13 10 82% 76.28 0.0
09 00:35 NE 9 11.27 Fair CLR 13 10 82% 76.28 0.0
09 00:15 NE 6 12.87 Fair CLR 13 10 82% 76.28 0.0
08 23:55 NE 7 12.87 Fair CLR 13 10 82% 76.28 0.0
08 23:35 N 7 12.87 Fair CLR 13 10 82% 76.3 0.0
08 23:15 Calm 12.87 Fair CLR 13 10 82% 76.3 0.0
08 22:55 NE 6 12.87 Fair CLR 13 10 82% 76.3 0.0
08 22:35 N 7 12.87 Fair CLR 13 10 82% 76.3 0.0
08 22:15 N 9 12.87 Fair CLR 13 10 82% 76.3 0.0
08 21:55 N 15 12.87 Fair CLR 14 10 77% 76.3 0.0
08 21:35 N 9 12.87 Fair CLR 14 10 77% 76.3 0.0
08 21:15 N 13 12.87 Fair CLR 14 11 82% 76.28 0.0
08 20:55 N 11 12.87 Fair CLR 14 11 82% 76.28 0.0
08 20:35 N 15 12.87 Fair CLR 14 11 82% 76.28 0.0
08 20:15 N 17 11.27 Fair CLR 15 11 77% 76.25 0.0
08 19:55 N 19 9.66 Fair with Haze CLR 15 11 77% 76.25 0.0
08 19:35 N 17 11.27 Fair CLR 15 11 77% 76.25 0.0
08 19:15 N 17 12.87 Fair CLR 16 12 77% 76.23 0.0
08 18:55 N 20 11.27 Fair CLR 16 12 77% 76.23 0.0
08 18:35 N 24 11.27 Fair CLR 16 12 77% 76.23 0.0
08 18:15 N 24 12.87 Fair CLR 17 12 73% 76.23 0.0
08 17:55 N 26 11.27 Fair CLR 17 12 73% 76.23 0.0
08 17:35 N 28 12.87 Fair CLR 17 12 73% 76.25 0.0
08 17:15 N 24 G 33 11.27 Fair CLR 17 12 73% 76.25 0.0
08 16:55 N 24 11.27 Fair CLR 17 12 73% 76.25 0.0
08 16:35 N 30 12.87 Fair CLR 17 12 73% 76.28 0.0
08 16:15 N 26 12.87 Fair CLR 18 12 68% 76.28 0.0
08 15:55 N 30 12.87 Fair CLR 18 12 68% 76.3 0.0
08 15:35 N 24 12.87 Fair CLR 18 12 68% 76.33 0.0
08 15:15 N 26 12.87 Fair CLR 17 12 73% 76.35 0.0
08 14:55 N 26 12.87 Fair CLR 17 12 73% 76.35 0.0
08 14:35 N 26 11.27 Fair CLR 18 12 68% 76.38 0.0
08 14:15 N 24 11.27 Fair CLR 17 12 73% 76.4 0.0
08 13:55 NW 20 12.87 Fair CLR 17 12 73% 76.4 0.0
08 13:35 N 22 11.27 Fair CLR 17 12 73% 76.43 0.0
08 13:15 N 20 14.48 Fair CLR 17 12 73% 76.43 0.0
08 12:55 N 17 G 28 12.87 A Few Clouds FEW015 18 12 68% 76.43 0.0
08 12:35 N 19 12.87 A Few Clouds FEW015 17 12 73% 76.45 0.0
08 12:15 N 17 12.87 A Few Clouds FEW017 17 12 73% 76.45 0.0
08 11:55 N 20 12.87 Fair CLR 17 11 68% 76.45 0.0
08 11:35 N 17 14.48 Fair CLR 16 11 72% 76.48 0.0
08 11:15 N 15 14.48 Fair CLR 16 10 68% 76.48 0.0
08 10:55 NE 17 12.87 Fair CLR 15 10 72% 76.48 0.0
08 10:35 N 15 14.48 Fair CLR 15 10 72% 76.48 0.0
08 10:15 N 11 14.48 Fair CLR 15 10 72% 76.48 0.0
08 09:55 N 13 14.48 Fair CLR 15 9 68% 76.48 0.0
08 09:35 Vrbl 7 14.48 Partly Cloudy SCT020 14 9 72% 76.48 0.0
08 09:15 Calm 14.48 Mostly Cloudy BKN019 14 9 72% 76.48 0.0
08 08:55 NE 6 14.48 Mostly Cloudy BKN018 13 9 77% 76.48 0.0
08 08:35 NW 6 14.48 Overcast OVC018 13 8 72% 76.48 0.0
08 08:15 Calm 14.48 Overcast OVC017 13 9 77% 76.48 0.0
08 07:55 N 7 14.48 Overcast OVC017 12 9 82% 76.48 0.0
08 07:35 Calm 14.48 Overcast OVC016 12 9 82% 76.48 0.0
08 07:15 N 9 14.48 Overcast OVC016 12 9 82% 76.48 0.0
08 06:55 Calm 14.48 Overcast OVC016 12 9 82% 76.45 0.0
08 06:35 Calm 14.48 Overcast OVC015 12 9 82% 76.45 0.0
08 06:15 Vrbl 6 14.48 Overcast OVC015 12 9 82% 76.43 0.0
08 05:55 Calm 16.09 Overcast OVC015 12 9 82% 76.43 0.0
08 05:35 N 11 16.09 Overcast OVC015 12 9 82% 76.43 0.0
08 05:15 W 9 14.48 Overcast OVC015 12 9 82% 76.43 0.0
08 04:55 NW 9 14.48 Overcast OVC015 12 9 82% 76.43 0.0
08 04:35 NW 11 14.48 Overcast OVC014 12 9 82% 76.43 0.0
08 04:15 N 9 16.09 Overcast OVC014 13 10 82% 76.43 0.0
08 03:55 N 9 14.48 Overcast OVC014 13 10 82% 76.43 0.0
08 03:35 Calm 14.48 Overcast OVC014 13 10 82% 76.43 0.0
08 03:15 Calm 14.48 Overcast OVC013 13 10 82% 76.4 0.0
08 02:55 Calm 14.48 Overcast OVC013 13 10 82% 76.4 0.0
08 02:35 NW 7 14.48 Overcast OVC013 13 10 82% 76.4 0.0
08 02:15 Vrbl 7 14.48 Overcast OVC013 13 10 82% 76.4 0.0
08 01:55 Calm 14.48 Overcast OVC013 13 10 82% 76.4 0.0
08 01:35 NW 11 14.48 Overcast OVC012 13 10 82% 76.43 0.0
08 01:15 NW 9 14.48 Overcast OVC012 13 10 82% 76.43 0.0
08 00:55 NW 13 14.48 Overcast OVC012 13 10 82% 76.43 0.0
08 00:35 NW 9 16.09 Overcast OVC011 13 10 82% 76.4 0.0
08 00:15 Calm 16.09 Overcast OVC011 13 10 82% 76.4 0.0
07 23:55 Calm 16.09 Overcast OVC014 12 10 88% 76.4 0.0
07 23:35 NW 11 14.48 Overcast OVC013 12 10 88% 76.4 0.0
07 23:15 N 13 16.09 Overcast OVC011 13 11 88% 76.4 0.0
07 22:55 N 19 14.48 Overcast OVC011 13 11 88% 76.4 0.0
07 22:35 NW 13 16.09 Overcast OVC010 13 11 88% 76.4 0.0
07 22:15 NW 11 14.48 Overcast OVC011 13 11 88% 76.38 0.0
07 21:55 N 19 16.09 Overcast OVC011 14 11 82% 76.38 0.0
07 21:35 N 19 14.48 Overcast OVC010 14 12 88% 76.38 0.0
07 21:15 N 19 14.48 Mostly Cloudy BKN011 14 12 88% 76.35 0.0
07 20:55 N 19 14.48 Partly Cloudy SCT011 14 12 88% 76.35 0.0
07 20:35 N 19 14.48 Fair CLR 14 12 88% 76.33 0.0
07 20:15 N 17 14.48 Fair CLR 15 12 82% 76.3 0.0
07 19:55 N 20 14.48 Fair CLR 15 12 82% 76.3 0.0
07 19:35 N 19 14.48 Fair CLR 15 12 82% 76.3 0.0
07 19:15 N 20 14.48 NULL NULL 16 12 77% 76.28 0.0
07 18:55 N 22 14.48 Fair CLR 16 12 77% 76.28 0.0
07 18:35 NW 20 G 30 14.48 Fair CLR 16 12 77% 76.28 0.0
07 18:15 NW 22 14.48 Fair CLR 17 12 73% 76.28 0.0
07 17:55 N 24 14.48 Fair CLR 17 12 73% 76.28 0.0
07 17:35 N 28 14.48 Fair CLR 17 12 73% 76.28 0.0
07 17:15 N 20 G 33 14.48 Fair CLR 17 12 73% 76.28 0.0
07 16:55 N 26 14.48 Fair CLR 18 12 68% 76.28 0.0
07 16:35 N 20 G 31 14.48 Fair CLR 18 13 73% 76.28 0.0
07 16:15 N 20 14.48 Fair CLR 18 13 73% 76.3 0.0
07 15:55 N 20 14.48 Fair CLR 18 13 73% 76.3 0.0
07 15:35 N 19 14.48 Fair CLR 18 13 73% 76.3 0.0
07 15:15 N 22 14.48 Fair CLR 18 13 73% 76.33 0.0
07 14:55 N 22 14.48 Fair CLR 18 13 73% 76.35 0.0
07 14:35 N 19 G 28 14.48 Fair CLR 18 12 68% 76.35 0.0
07 14:15 N 15 14.48 Fair CLR 18 12 68% 76.38 0.0
07 13:55 N 15 12.87 Fair CLR 18 12 68% 76.38 0.0
07 13:35 N 9 G 20 12.87 Fair CLR 18 12 68% 76.4 0.0
07 13:15 NE 11 12.87 Fair CLR 18 12 68% 76.4 0.0
07 12:55 Vrbl 11 12.87 A Few Clouds FEW014 17 12 73% 76.43 0.0
07 12:35 Vrbl 11 12.87 Mostly Cloudy BKN014 17 12 73% 76.45 0.0
07 12:15 Vrbl 11 12.87 Overcast OVC013 16 12 77% 76.45 0.0
07 11:55 N 11 12.87 Overcast OVC011 16 12 77% 76.48 0.0
07 11:35 N 7 12.87 Overcast OVC010 15 12 82% 76.5 0.0
07 11:15 N 9 12.87 Overcast OVC009 14 12 88% 76.5 0.0
07 10:55 NE 7 11.27 Overcast OVC008 14 12 88% 76.5 0.0
07 10:35 Calm 11.27 Overcast OVC008 14 12 88% 76.48 0.0
07 10:15 N 7 12.87 Overcast OVC008 14 12 88% 76.48 0.0
07 09:55 Calm 12.87 Overcast OVC008 14 12 88% 76.48 0.0
07 09:35 NE 7 12.87 Overcast OVC008 14 12 88% 76.48 0.0
07 09:15 NE 6 12.87 Overcast OVC008 14 12 88% 76.48 0.0
07 08:55 N 7 11.27 Overcast OVC008 13 12 94% 76.48 0.0
07 08:35 N 6 12.87 Overcast OVC008 13 12 94% 76.48 0.0
07 08:15 Vrbl 6 11.27 Overcast OVC008 13 12 94% 76.48 0.0
07 07:55 NW 6 11.27 Overcast OVC008 13 12 94% 76.48 0.0
07 07:35 N 9 12.87 Overcast OVC008 13 12 94% 76.48 0.0
07 07:15 NE 7 12.87 Overcast OVC009 13 12 94% 76.45 0.0
07 06:55 Vrbl 7 12.87 Overcast OVC009 13 12 94% 76.45 0.0
07 06:35 Calm 14.48 Overcast OVC008 13 12 94% 76.45 0.0
07 06:15 N 11 14.48 Overcast OVC008 13 12 94% 76.43 0.0
07 05:55 Calm 14.48 Overcast OVC008 13 12 94% 76.43 0.0
07 05:35 Calm 12.87 Overcast OVC008 13 12 94% 76.43 0.0
07 05:15 NE 9 14.48 Overcast OVC008 13 12 94% 76.43 0.0
07 04:55 N 11 12.87 Overcast OVC008 14 12 88% 76.43 0.0
07 04:35 NE 9 14.48 Overcast OVC009 14 12 88% 76.45 0.0
07 04:15 Calm 16.09 Overcast OVC010 14 12 88% 76.45 0.0
07 03:55 Calm 14.48 Overcast OVC010 14 12 88% 76.45 0.0
07 03:35 Calm 14.48 Overcast OVC010 14 12 88% 76.45 0.0
07 03:15 Calm 14.48 Overcast OVC009 14 12 88% 76.45 0.0
07 02:55 N 7 14.48 Overcast OVC009 14 12 88% 76.43 0.0
07 02:35 N 9 14.48 Overcast OVC009 14 12 88% 76.45 0.0
07 02:15 NW 9 14.48 Overcast OVC011 14 12 88% 76.45 0.0
07 01:55 N 6 14.48 Overcast OVC010 14 12 88% 76.45 0.0
07 01:35 N 11 16.09 Overcast OVC010 14 12 88% 76.48 0.0
07 01:15 NE 13 14.48 Overcast OVC010 14 12 88% 76.48 0.0
07 00:55 NE 13 14.48 Overcast OVC009 14 12 88% 76.48 0.0
07 00:35 N 13 14.48 Overcast OVC010 14 12 88% 76.48 0.0
07 00:15 N 11 14.48 Overcast OVC010 14 12 88% 76.48 0.0
06 23:55 N 13 14.48 Overcast OVC010 14 12 88% 76.48 0.0
06 23:35 N 15 14.48 Overcast OVC010 14 12 88% 76.48 0.0
06 23:15 NE 17 14.48 Overcast OVC010 14 12 88% 76.48 0.0
06 22:55 N 11 14.48 Overcast OVC011 14 13 94% 76.48 0.0
06 22:35 NE 11 14.48 Overcast OVC010 14 12 88% 76.48 0.0
06 22:15 NE 6 14.48 Overcast OVC011 14 12 88% 76.5 0.0
06 21:55 N 9 14.48 Partly Cloudy SCT011 14 12 88% 76.48 0.0
06 21:35 N 13 14.48 A Few Clouds FEW011 14 12 88% 76.48 0.0
06 21:15 N 13 G 24 16.09 Fair CLR 15 12 82% 76.48 0.0
06 20:55 N 20 14.48 Fair CLR 15 12 82% 76.45 0.0
06 20:35 N 19 G 30 14.48 Fair CLR 15 13 88% 76.43 0.0
06 20:15 N 24 12.87 Fair CLR 16 13 83% 76.4 0.0
06 19:55 N 26 12.87 Fair CLR 16 13 83% 76.38 0.0
06 19:35 N 20 G 31 14.48 Fair CLR 17 13 77% 76.35 0.0
06 19:15 N 24 12.87 Fair CLR 17 14 83% 76.35 0.0
06 18:55 N 22 G 33 14.48 Fair CLR 18 14 78% 76.35 0.0
06 18:35 N 30 14.48 Fair CLR 18 13 73% 76.35 0.0
06 18:15 N 28 14.48 Fair CLR 18 14 78% 76.35 0.0
06 17:55 N 24 14.48 Fair CLR 19 14 73% 76.35 0.0
06 17:35 N 26 14.48 Fair CLR 19 14 73% 76.35 0.0
06 17:15 N 22 14.48 Fair CLR 20 14 69% 76.33 0.0
06 16:55 N 22 G 31 16.09 Fair CLR 21 13 60% 76.33 0.0
06 16:35 N 22 G 33 14.48 Fair CLR 21 13 60% 76.35 0.0
06 16:15 N 24 14.48 Fair CLR 21 13 60% 76.35 0.0
06 15:55 N 24 14.48 Fair CLR 21 13 60% 76.38 0.0
06 15:35 N 30 14.48 Fair CLR 21 13 60% 76.38 0.0
06 15:15 N 22 14.48 Fair CLR 21 13 60% 76.4 0.0
06 14:55 N 19 14.48 Fair CLR 21 13 60% 76.4 0.0
06 14:35 N 20 14.48 Fair CLR 21 12 57% 76.43 0.0
06 14:15 N 17 14.48 Fair CLR 21 12 57% 76.45 0.0
06 13:55 N 17 14.48 Fair CLR 20 12 60% 76.45 0.0
06 13:35 N 15 14.48 Fair CLR 20 12 60% 76.48 0.0
06 13:15 N 11 G 22 14.48 Fair CLR 20 12 60% 76.5 0.0
06 12:55 NW 7 14.48 Fair CLR 19 11 60% 76.5 0.0
06 12:35 Vrbl 7 14.48 Fair CLR 19 11 60% 76.53 0.0
06 12:15 NW 11 14.48 Fair CLR 18 11 64% 76.53 0.0
06 11:55 N 13 14.48 Fair CLR 18 11 64% 76.56 0.0
06 11:35 N 13 16.09 Fair CLR 18 11 64% 76.56 0.0
06 11:15 N 7 G 19 16.09 A Few Clouds FEW023 17 11 68% 76.56 0.0
06 10:55 N 13 14.48 Partly Cloudy SCT022 17 11 68% 76.56 0.0
06 10:35 Vrbl 9 14.48 Overcast OVC022 16 11 72% 76.56 0.0
06 10:15 Vrbl 11 14.48 Overcast OVC022 16 11 72% 76.58 0.0
06 09:55 N 11 16.09 Overcast OVC023 16 11 72% 76.58 0.0
06 09:35 N 11 14.48 Overcast OVC023 16 11 72% 76.58 0.0
Date Time (pdt) Wind (kph) Vis. (km) Weather Sky Cond. Air Dwpt Max. Min. Relative Humidity Wind Chill (°C) Heat Index (°C) altimeter (cm) sea level (mb) 1 hr 3 hr 6 hr
6 hour
Temperature (ºC) Pressure Precipitation (cm)